Location: T�bingen+AIT
(48.5342°N, 9.0700°E)
Time: 01:50:20
(UTC+02:00)

Cosmos 1674 - Pass Details

Date: 14 September 2017
Orbit: 498 x 523 km, 82.5° (Epoch: 23 September)

Event Time Altitude Azimuth Distance (km) Brightness Sun altitude
Rises 21:43:22 0° 360° (N) 2,622 6.7 -20.4°
Reaches altitude 10° 21:45:45 10° 12° (NNE) 1,727 5.6 -20.7°
Enters shadow 21:47:43 22° 38° (NE) 1,150 4.3 -21.0°
